Location: Bílinka
(49.3579°N, 14.3767°E)
Time: 23:10:54
(UTC+00:00)

BlueWalker 3 - Pass Details

Date: 28 January 2023
Orbit: 497 x 514 km, 53.2° (Epoch: 29 March)

Event Time Altitude Azimuth Distance (km) Brightness Sun altitude
Rises 18:42:30 0° 262° (W) 2,602 6.8 -27.7°
Reaches altitude 10° 18:44:42 10° 267° (W) 1,723 5.6 -28.1°
Enters shadow 18:46:57 31° 282° (WNW) 909 3.7 -28.5°
